SCP
0 0 0 0 0 0 0 0 0 0 0 0 0 0 0 0 0 0 0 0 0 0 0 0 0 0 0 0 0 0 0 0 0 0 0 0 0 0 0 0 0 0 0
0 0 0 0 0 0 0 0 0 0 0 0 0 0 0 0 0 0 0 0 0 0 0 0 0 0 0 0 0 0 0 0 0 0 0 0 0 0 0 0 0 0 0
0 0 0 0 0 0 0 0 0 0 0 0 0 0 0 0 0 0 0 0 0 0 0 0 0 0 0 0 0 0 0 0 0 0 0 0 0 0 0 0 0 0 0
0 0 0 0 0 0 0 0 0 0 0 0 0 0 0 0 0 0 0 0 0 0 0 0 0 0 0 0 0 0 0 0 0 0 0 0 0 0 0 0 0 0 0
0 0 0 0 0 0 0 0 0 0 0 -0 -0 -0 -0 0 0 0 0 0 0 0 0 0 0 0 0 0 0 0 0 0 0 0 0 0 0 0 0 0 0 0 0
0 0 0 0 0 0 0 0 0 0 0 -0 -0 -0 -0 -0 -0 0 0 0 0 0 0 0 0 0 0 0 0 0 0 0 0 0 0 0 0 0 0 0 0 0 0
0 0 0 0 0 0 0 0 0 0 0 0 0 -0 -0 -0 -0 0 0 0 0 0 0 0 0 0 0 0 0 0 0 0 0 0 0 0 0 0 0 0 0 0 0
0 0 0 0 0 0 0 0 0 0 0 0 0 0 0 -0 -0 0 0 0 0 0 0 0 0 0 0 0 0 0 0 0 0 0 0 0 0 0 0 0 0 0 0
0 0 0 0 0 0 0 0 0 0 0 0 0 0 0 0 0 0 0 0 0 0 0 0 0 0 0 0 0 0 0 0 0 0 0 0 0 0 0 0 0 0 0
0 0 0 0 0 0 0 0 0 0 0 0 0 0 0 0 0 0 0 0 0 0 0 0 0 0 0 0 0 0 0 0 0 0 0 0 0 0 0 0 0 0 0
0 0 0 0 0 0 0 0 0 0 0 0 0 0 0 0 0 0 0 0 0 0 0 0 0 0 0 0 0 0 0 0 0 0 0 0 0 0 0 0 0 0 0
0 0 0 0 0 0 0 0 0 0 0 0 0 0 0 0 0 0 0 0 0 0 0 0 0 0 0 0 0 0 0 0 0 0 0 0 0 0 0 0 0 0 0
0 0 0 0 0 0 0 0 0 0 0 0 0 0 0 0 0 0 0 0 0 0 0 0 0 0 0 0 0 0 0 0 0 0 0 0 0 0 0 0 0 0 0
0 0 0 0 0 0 0 0 0 0 0 0 0 0 0 0 0 0 0 0 0 0 0 0 0 0 0 0 0 0 0 0 0 0 0 0 0 0 0 0 0 0 0
0 0 0 0 0 0 0 0 0 0 0 0 0 0 0 0 0 0 0 0 0 0 0 0 0 0 0 0 0 0 0 0 0 0 0 0 0 0 0 0 0 0 0
0 0 0 0 0 0 0 0 0 0 0 0 0 0 0 0 0 0 0 0 0 0 0 0 0 0 0 0 0 0 0 0 0 0 0 0 0 0 0 0 0 0 0
0 0 0 0 0 0 0 0 0 0 0 0 0 0 0 0 0 0 0 0 0 0 0 0 0 0 0 0 0 0 0 0 0 0 0 0 0 0 0 0 0 0 0
0 0 0 0 0 0 0 0 0 0 0 0 0 0 0 0 0 0 0 0 0 0 0 0 0 0 0 0 0 0 0 0 0 0 0 0 0 0 0 0 0 0 0
0 0 0 0 0 0 0 0 0 0 0 0 0 0 0 0 0 0 0 0 0 0 0 0 0 0 0 0 0 0 0 0 0 0 0 0 0 0 0 0 0 0 0
0 0 0 0 0 0 0 0 0 0 0 0 0 0 0 0 0 0 0 0 0 0 0 0 0 0 0 0 0 0 0 0 0 0 0 0 0 0 0 0 0 0 0
0 0 0 0 0 0 0 0 0 0 0 0 0 0 0 0 0 0 0 0 0 0 0 0 0 0 0 0 0 0 0 0 0 0 0 0 0 0 0 0 0 0 0
0 0 0 0 0 0 0 0 0 0 0 0 0 0 0 0 0 0 0 0 0 0 0 0 0 0 0 0 0 0 0 0 0 0 0 0 0 0 0 0 0 0 0
0 0 0 0 0 0 0 0 0 0 0 0 0 0 0 0 0 0 0 0 0 0 0 0 0 0 0 0 0 0 0 0 0 0 0 0 0 0 0 0 0 0 0
0 0 0 0 0 0 0 0 0 0 0 0 0 0 0 0 0 0 0 0 0 0 0 0 0 0 0 0 0 0 0 0 0 0 0 0 0 0 0 0 0 0 0
0 0 0 0 0 0 0 0 0 0 0 0 0 0 0 0 0 0 0 0 0 0 0 0 0 0 0 0 0 0 0 0 0 0 0 0 0 0 0 0 0 0 0
0 0 0 0 0 0 0 0 0 0 0 0 0 0 0 0 0 0 0 0 0 0 0 0 0 0 0 0 0 0 0 0 0 0 0 0 0 0 0 0 0 0 0
Wind_Speed
4 4 3 3 3 3 3 2 2 3 3 3 3 3 3 3 3 3 3 8 8 8 8 8 9 9 10 10 10 11 11 12 12 13 13 14 14 14 15 15 15 15 15
4 4 4 3 3 2 2 2 3 2 2 2 2 3 2 3 3 3 3 4 7 8 8 9 9 10 10 11 11 11 12 12 13 13 14 15 15 15 15 15 15 16 16
5 4 4 3 3 2 3 2 3 2 2 2 2 2 2 2 2 2 2 2 3 5 8 9 9 10 10 11 11 12 12 13 13 14 14 15 15 15 16 16 16 16 17
5 4 3 3 3 2 2 2 2 2 1 1 1 1 1 1 1 2 2 2 2 2 4 7 9 10 10 11 11 12 13 13 14 14 15 15 16 16 16 17 17 17 17
5 4 3 3 3 2 2 2 2 1 1 1 0 0 0 1 0 0 1 2 3 3 3 4 6 8 10 11 12 13 13 13 14 15 15 16 16 16 17 17 18 18 18
4 4 3 4 3 2 2 2 2 1 1 0 0 1 1 1 1 0 1 1 2 3 4 4 4 4 7 10 11 13 14 14 15 15 16 16 17 17 17 17 18 18 19
4 4 3 4 3 2 2 2 2 2 1 1 1 1 1 2 2 1 2 2 2 3 4 5 4 5 4 7 9 12 14 15 16 16 17 17 17 17 18 18 18 18 19
4 3 4 3 3 2 3 3 2 1 1 0 1 2 2 2 2 2 2 2 3 3 4 5 5 5 6 5 7 11 13 15 17 17 18 18 18 18 18 18 18 19 19
4 4 4 4 3 3 3 3 2 2 1 1 1 2 2 2 2 2 2 3 3 4 4 4 5 6 6 5 6 8 13 16 17 18 18 18 19 19 19 19 19 19 19
4 4 4 4 3 3 2 2 2 1 2 1 1 1 2 2 3 2 2 2 4 5 5 4 5 5 6 5 7 10 14 16 17 18 19 19 20 20 19 19 19 19 19
4 4 4 4 4 3 3 2 2 2 2 2 1 1 1 2 3 3 4 4 4 3 4 5 5 5 6 6 6 9 14 15 17 18 18 19 20 20 20 20 19 19 19
3 5 4 4 4 3 3 3 3 3 2 2 1 1 1 1 2 3 4 5 5 4 5 4 4 5 5 6 7 12 14 15 16 17 18 19 19 20 20 20 19 19 20
4 5 5 4 4 3 3 3 3 3 2 2 2 2 2 2 2 3 4 5 6 5 4 3 4 5 5 6 7 12 13 15 15 17 17 18 19 19 19 19 19 19 19
4 5 5 4 4 4 4 3 3 3 2 2 2 2 2 2 2 3 3 4 5 4 4 5 4 4 5 6 8 13 10 14 15 16 17 18 18 18 18 18 18 18 18
4 6 5 5 5 4 4 3 2 3 2 2 2 2 2 2 2 3 3 4 4 6 6 5 4 5 6 6 9 10 10 13 15 16 17 17 17 17 17 17 17 17 18
5 5 5 5 5 4 4 3 2 2 2 2 2 2 2 2 2 2 3 3 4 6 6 5 6 7 7 7 10 10 10 14 14 15 16 17 17 17 17 17 17 17 17
5 6 5 5 5 4 4 3 3 3 3 2 2 2 3 3 3 3 3 3 4 5 8 7 6 7 9 9 9 8 9 9 8 13 16 16 16 17 17 16 16 16 17
5 5 5 5 5 4 4 4 4 3 3 3 3 3 3 3 4 3 3 4 5 5 7 9 8 7 9 9 10 10 9 8 8 12 15 16 16 16 16 16 16 16 16
5 5 5 5 5 4 4 4 4 3 3 3 3 3 3 4 4 3 4 5 5 5 6 7 8 7 7 7 9 9 10 8 8 10 13 13 14 15 15 15 16 16 16
4 4 4 4 4 4 4 3 3 3 3 3 3 3 4 4 5 5 5 5 5 6 6 7 7 7 7 7 7 8 8 8 8 8 9 10 12 14 14 15 15 15 15
3 3 3 3 3 3 3 3 3 3 3 3 3 3 4 5 6 5 5 5 6 5 5 6 6 6 6 7 7 7 8 9 9 7 8 8 8 8 9 11 12 14 15
3 3 3 3 3 2 1 3 3 3 3 3 3 3 3 4 6 7 8 8 8 7 6 6 6 7 8 8 7 7 8 8 7 6 9 9 7 8 7 7 12 15 15
3 3 3 2 2 2 2 2 2 3 3 3 3 3 3 4 5 5 7 8 7 8 8 7 8 8 9 8 8 9 8 9 9 8 8 8 7 8 8 8 14 15 15
3 3 2 2 2 1 1 1 2 3 3 3 3 3 4 4 4 6 6 6 6 6 7 6 7 8 8 8 7 8 9 9 9 6 6 7 8 8 9 8 11 14 15
3 2 2 2 1 1 1 0 1 1 2 2 2 3 3 4 5 7 6 6 7 6 6 8 10 9 10 10 8 5 6 6 7 6 4 5 7 9 8 7 8 12 14
3 2 2 1 1 1 1 0 2 1 1 2 2 3 3 4 5 6 5 6 6 7 7 7 7 7 6 6 7 6 5 6 6 5 4 5 6 7 7 5 6 8 9
Wind_Direction
135 133 126 123 117 111 110 105 109 105 99 89 86 82 81 79 73 68 69 44 28 26 24 19 13 10 5 3 0 356 351 348 347 344 341 337 335 333 330 327 325 322 320
137 137 131 124 116 115 106 107 99 102 98 92 89 83 79 81 74 69 62 63 41 26 21 15 10 5 1 358 356 352 350 347 345 342 339 336 333 330 328 325 323 322 319
137 134 129 126 119 121 120 110 102 95 94 107 107 92 79 71 71 62 52 36 39 34 22 11 5 0 357 354 352 349 347 345 342 339 337 334 332 328 327 324 322 321 319
136 133 130 125 125 127 127 122 118 117 109 95 98 102 107 108 69 46 49 29 13 3 18 10 359 355 352 349 347 344 342 340 338 337 335 332 329 327 325 323 321 319 317
142 136 133 129 135 135 134 130 121 117 114 92 85 215 219 200 136 89 41 13 7 350 343 354 348 348 345 344 343 340 338 337 336 334 332 330 327 324 322 321 320 318 316
147 139 136 134 139 140 139 140 124 103 85 68 217 235 238 232 227 229 324 340 343 337 335 331 327 333 337 338 340 339 336 335 333 332 331 328 325 322 321 320 318 318 316
149 144 142 145 152 153 151 144 134 119 80 23 242 234 207 213 231 247 279 300 324 327 324 324 324 327 322 328 335 336 334 333 331 329 328 326 325 323 321 319 318 318 317
152 154 156 156 162 161 156 156 149 148 93 24 302 276 260 208 199 243 255 277 302 314 314 320 323 324 322 320 330 331 331 331 329 327 326 325 323 322 321 320 320 318 316
159 161 165 161 166 171 173 176 177 178 167 144 337 307 295 302 310 221 251 270 295 301 303 311 312 317 320 318 319 327 330 329 326 325 324 324 323 321 320 320 319 317 316
168 166 167 168 171 177 178 182 198 211 205 197 173 315 316 325 300 292 243 270 301 299 301 304 304 310 315 313 316 323 326 325 324 324 324 324 322 321 320 320 318 317 317
172 171 175 177 179 181 182 183 189 210 224 229 214 225 250 268 279 284 289 299 295 289 299 299 301 305 308 309 311 320 322 322 323 322 323 323 322 321 320 319 318 318 317
176 178 183 185 182 183 186 189 194 206 218 222 230 232 255 265 284 282 286 299 300 301 296 290 294 305 309 308 310 319 318 319 321 322 322 322 321 319 319 319 318 318 317
183 186 187 187 184 184 187 190 198 204 213 223 230 239 255 272 291 287 286 295 299 300 292 283 298 303 308 311 313 316 311 316 319 321 321 321 320 318 317 317 317 317 318
185 184 187 186 187 184 185 189 198 202 209 220 230 237 252 264 274 278 285 293 296 290 288 299 303 302 312 311 316 311 308 316 318 319 320 320 320 320 318 318 318 319 319
175 180 180 182 184 183 184 188 197 196 200 215 232 247 257 264 269 273 279 284 291 296 299 303 308 310 312 309 312 308 311 318 316 317 319 320 321 322 320 319 320 320 320
173 174 177 180 180 179 182 186 191 197 205 212 229 244 264 266 271 274 273 277 278 282 287 297 299 306 309 305 309 310 311 314 311 316 320 320 321 323 322 320 320 320 320
175 176 178 179 180 181 179 186 193 194 209 222 232 243 259 276 278 274 277 276 275 279 282 291 296 305 307 307 311 311 311 311 311 316 319 319 320 322 323 322 322 321 321
174 177 180 182 184 186 186 190 195 203 212 223 238 252 265 271 275 282 280 276 276 277 283 292 299 306 307 310 313 312 312 311 310 314 316 316 319 323 323 323 323 322 322
171 175 182 184 184 189 193 200 203 210 219 230 239 253 266 272 275 281 287 284 281 282 283 287 297 306 308 314 314 311 312 313 312 312 313 314 317 321 322 322 322 322 320
171 174 180 183 184 191 196 203 212 217 227 238 248 257 263 269 278 285 284 289 292 291 289 289 295 304 308 316 315 316 316 317 314 313 315 316 317 317 319 321 322 322 321
158 165 171 172 175 185 198 211 216 222 232 246 258 263 269 283 291 292 292 293 295 291 292 295 297 303 309 317 317 317 312 315 313 315 319 319 318 315 318 319 323 325 322
147 151 157 158 164 172 189 218 230 227 232 246 260 270 278 277 286 290 294 297 297 295 297 295 295 298 303 310 313 311 312 317 314 323 319 314 316 313 316 316 326 328 326
149 151 146 152 162 164 189 220 252 249 242 250 262 274 284 288 289 291 293 292 291 293 295 296 292 294 301 307 308 308 308 308 303 312 314 304 313 311 314 315 324 326 327
152 151 146 148 157 153 164 250 278 254 255 263 271 279 284 292 296 304 301 300 299 297 296 292 292 297 301 303 299 299 302 302 299 304 314 301 311 311 314 311 321 327 328
148 148 143 145 138 133 130 227 302 265 265 280 292 288 290 295 312 318 310 304 304 309 306 300 300 299 302 304 307 305 308 312 311 312 323 305 311 313 307 305 318 327 327
138 134 124 128 122 113 113 239 314 289 286 299 298 296 297 312 319 319 312 309 308 314 316 314 310 306 304 304 309 305 306 309 313 308 326 317 313 321 312 309 323 328 326